Location: Newark
(45.8667°N, 9.7333°E)
Time: 22:01:35
(UTC+00:00)

Transit 4A - Pass Details

Date: 29 January 2020
Orbit: 872 x 973 km, 66.8° (Epoch: 20 February)

Event Time Altitude Azimuth Distance (km) Brightness Sun altitude
Rises 13:54:41 0° 325° (NW) 3,471 10.7 18.7°
Reaches altitude 10° 13:57:11 10° 323° (NW) 2,529 10.1 18.4°
Maximum altitude 14:02:57 68° 242° (WSW) 941 8.7 17.8°
Drops below altitude 10° 14:08:46 10° 160° (SSE) 2,541 10.7 17.2°
Sets 14:11:17 0° 158° (SSE) 3,488 11.3 16.9°
